Torrington, WY

2:04 PM MST on January 23, 2018 (GMT -0700)
Torrington Municipal

Weather History for KTOR - September, 2013

Change the Weather History Date:

Friday, September 6, 2013

  Actual Average Record
Temperature  
Mean Temperature 82 °F 65 °F  
Max Temperature 100 °F 82 °F 100 °F (2013)
Min Temperature 64 °F 48 °F 37 °F (2017)
Degree Days  
Heating Degree Days 0 3  
Month to date heating degree days 0 14  
Since 1 July heating degree days 2 36  
Cooling Degree Days 17 3  
Month to date cooling degree days 75 20  
Year to date cooling degree days 848 653  
Growing Degree Days 32 (Base 50)    
Moisture  
Dew Point 55 °F    
Average Humidity 45    
Maximum Humidity 73    
Minimum Humidity 17    
Precipitation  
Precipitation 0.07 in 0.04 in 0.22 in (2008)
Month to date precipitation 0.07 0.28  
Year to date precipitation 6.88 11.24  
Sea Level Pressure  
Sea Level Pressure 29.93 in    
Wind  
Wind Speed 8 mph (NW)    
Max Wind Speed 36 mph    
Max Gust Speed 46 mph    
Visibility 10 miles    
Events Rain , Thunderstorm    
T = Trace of Precipitation, MM = Missing Value Source: NWS Daily Summary

Daily Weather History Graph

Daily Weather History Graph

Search for Another Location

Airport or City:

Trip Planner

Search our weather history database for the weather conditions in past years. The results will help you decide how hot, cold, wet, or windy it might be!

Date:

Astronomy

Sep. 06, 2013 Rise Set
Actual Time 6:27 AM MDT 7:21 PM MDT
Civil Twilight 5:59 AM MDT 7:49 PM MDT
Nautical Twilight 5:25 AM MDT 8:23 PM MDT
Astronomical Twilight 4:50 AM MDT 8:58 PM MDT
Moon 7:44 AM MDT (9/6) 7:44 PM MDT (9/6)
Length of Visible Light 13h 50m
Length of Day
12h 53m
New Moon, 2% of the Moon is Illuminated
Sep 6
New Moon
Sep 12
First Quarter
Sep 19
Full
Sep 26
Last Quarter
Oct 4
New

Hourly Weather History & Observations

Time (MDT) Temp. Heat Index Dew Point Humidity Pressure Visibility Wind Dir Wind Speed Gust Speed Precip Events Conditions
12:53 AM 72.0 °F - 57.0 °F 59% 29.90 in 10.0 mi NNE 4.6 mph - N/A   Clear
1:53 AM 70.0 °F - 57.0 °F 63% 29.89 in 10.0 mi North 3.5 mph - N/A   Clear
2:53 AM 68.0 °F - 57.9 °F 70% 29.89 in 10.0 mi Calm Calm - N/A   Clear
3:53 AM 66.9 °F - 57.9 °F 73% 29.89 in 10.0 mi Calm Calm - N/A   Clear
4:53 AM 68.0 °F - 59.0 °F 73% 29.90 in 10.0 mi Calm Calm - N/A   Clear
5:53 AM 66.0 °F - 57.9 °F 75% 29.91 in 10.0 mi Calm Calm - N/A   Clear
6:53 AM 66.0 °F - 55.9 °F 70% 29.93 in 10.0 mi NNW 4.6 mph - N/A   Clear
7:53 AM 68.0 °F - 59.0 °F 73% 29.94 in 10.0 mi South 3.5 mph - N/A   Clear
8:53 AM 71.1 °F - 59.0 °F 66% 29.95 in 10.0 mi Calm Calm - N/A   Clear
9:53 AM 78.1 °F - 57.0 °F 48% 29.95 in 10.0 mi West 4.6 mph - N/A   Clear
10:53 AM 84.0 °F 83.5 °F 57.9 °F 41% 29.93 in 10.0 mi WNW 6.9 mph - N/A   Clear
11:53 AM 90.0 °F 87.5 °F 53.1 °F 28% 29.92 in 10.0 mi WNW 11.5 mph - N/A   Clear
12:53 PM 93.9 °F - 51.1 °F 23% 29.90 in 10.0 mi West 10.4 mph - N/A   Clear
1:53 PM 97.0 °F - 46.9 °F 18% 29.88 in 10.0 mi WNW 12.7 mph - N/A   Clear
2:53 PM 98.1 °F - 46.0 °F 17% 29.86 in 10.0 mi North 9.2 mph - N/A   Clear
3:53 PM 98.1 °F - 46.0 °F 17% 29.85 in 10.0 mi NE 11.5 mph - N/A   Clear
4:53 PM 96.1 °F - 46.0 °F 18% 29.84 in 10.0 mi NE 10.4 mph 17.3 mph N/A   Clear
5:53 PM 90.0 °F - 50.0 °F 25% 29.86 in 10.0 mi NNE 11.5 mph - N/A   Clear
6:34 PM 82.4 °F - 50.0 °F 32% 30.06 in 8.0 mi SW 18.4 mph 38.0 mph N/A   Squalls
6:41 PM 80.6 °F 80.3 °F 53.6 °F 39% 30.07 in 6.0 mi WSW 27.6 mph 38.0 mph N/A Thunderstorm Haze
6:53 PM 75.0 °F - 57.0 °F 53% 29.94 in 8.0 mi WSW 31.1 mph 46.0 mph 0.00 in Rain , Thunderstorm Light Thunderstorms and Rain
7:53 PM 69.1 °F - 61.0 °F 75% 30.01 in 10.0 mi SW 16.1 mph - 0.01 in Rain , Thunderstorm Light Rain
8:25 PM 69.8 °F - 60.8 °F 73% 30.13 in 10.0 mi East 6.9 mph - 0.04 in Rain Light Rain
8:42 PM 71.6 °F - 57.2 °F 60% 30.07 in 9.0 mi North 26.5 mph 34.5 mph 0.06 in Rain , Thunderstorm Light Rain
8:53 PM 73.9 °F - 55.9 °F 53% 29.93 in 10.0 mi North 18.4 mph 35.7 mph 0.06 in Rain Light Rain
9:31 PM 78.8 °F - 53.6 °F 42% 30.04 in 10.0 mi WSW 8.1 mph 23.0 mph 0.00 in Rain Light Rain
9:53 PM 80.1 °F - 51.1 °F 36% 29.88 in 10.0 mi South 3.5 mph - 0.00 in   Clear
10:53 PM 72.0 °F - 57.9 °F 61% 29.89 in 10.0 mi SSE 10.4 mph - N/A   Mostly Cloudy
11:53 PM 72.0 °F - 57.0 °F 59% 29.87 in 10.0 mi Variable 4.6 mph - N/A   Clear